Location: Haram ta Haram Freeway
(35.0583°N, 51.4202°E)
Time: 14:02:48
(UTC+04:30)

CAS-4A - Pass Details

Date: 08 July 2020
Orbit: 528 x 545 km, 43.0° (Epoch: 02 August)

Event Time Altitude Azimuth Distance (km) Brightness Sun altitude
Exits shadow 04:27:16 17° 278° (W) 1,376 ? -15.8°
Maximum altitude 04:29:59 41° 342° (NNW) 784 ? -15.4°
Drops below altitude 10° 04:33:52 10° 53° (NE) 1,780 ? -14.8°
Sets 04:36:11 0° 61° (ENE) 2,668 ? -14.5°
